Stations météo

réclame
Mon MeteoGroup
Cabauw Tower, Pays-Bas (6348): Température de l'air & dewpoint: 18.10.2018 07:00:00 - 24.10.2018 07:00:00 (CEST)Cabauw Tower, Pays-Bas (6348): Température de l'air 5cm: 18.10.2018 07:00:00 - 24.10.2018 07:00:00 (CEST)Cabauw Tower, Pays-Bas (6348): Vitesse du vent & gusts: 18.10.2018 07:00:00 - 24.10.2018 07:00:00 (CEST)Cabauw Tower, Pays-Bas (6348): Direction du vent: 18.10.2018 07:00:00 - 24.10.2018 07:00:00 (CEST)Cabauw Tower, Pays-Bas (6348): reduced air pressure: 18.10.2018 07:00:00 - 24.10.2018 07:00:00 (CEST)Cabauw Tower, Pays-Bas (6348): visibility: 18.10.2018 07:00:00 - 24.10.2018 07:00:00 (CEST)Cabauw Tower, Pays-Bas (6348): Quantités de précipitations: 18.10.2018 07:00:00 - 24.10.2018 07:00:00 (CEST)
Date & Time tt [°C] td [°C] tt 5cm [°C] ff [km/h] ff [knt] fx [km/h] fx [knt] dd ppp [hPa] vv [km] rr [mm]
24.10.2018 07:00:00 15,0 12,7 14,8 25 14 43 23 WNW 1023,0 11 0,0
24.10.2018 06:00:00 15,1 12,5 14,9 29 16 47 25 WNW 1022,7 16 0,0
24.10.2018 05:00:00 15,1 12,4 14,9 25 14 47 25 WNW 1022,7 15 0,0
24.10.2018 04:00:00 14,9 12,4 14,6 25 14 43 23 WNW 1022,7 14 0,0
24.10.2018 03:00:00 14,6 12,0 14,3 25 14 43 23 WNW 1022,7 13 0,0
24.10.2018 02:00:00 14,4 11,6 14,2 29 16 43 23 WNW 1023,1 14 0,0
24.10.2018 01:00:00 14,4 11,5 14,2 32 18 47 25 WNW 1022,8 13 0,0
24.10.2018 00:00:00 14,5 11,5 14,2 25 14 43 23 WNW 1023,2 13 0,0
23.10.2018 23:00:00 14,3 11,3 13,6 25 14 36 19 W 1023,4 13 0,0
23.10.2018 22:00:00 14,4 11,1 13,8 22 12 40 21 WNW 1023,4 13 0,0
23.10.2018 21:00:00 14,8 11,1 14,4 25 14 36 19 WNW 1023,6 13 0,0
23.10.2018 20:00:00 14,4 10,6 14,0 25 14 36 19 WNW 1023,5 14 0,0
23.10.2018 19:00:00 14,2 10,0 13,7 25 14 40 21 WNW 1023,6 14 0,0
23.10.2018 18:00:00 14,0 9,6 13,7 29 16 47 25 WNW 1023,6 14 0,0
23.10.2018 17:00:00 13,8 9,5 13,6 29 16 47 25 WNW 1023,5 15 0,0
23.10.2018 16:00:00 13,8 9,3 13,7 29 16 47 25 WNW 1023,2 14 0,0
23.10.2018 15:00:00 13,8 9,2 13,8 32 18 50 27 WNW 1023,9 14 0,0
23.10.2018 14:00:00 13,8 9,6 13,9 29 16 50 27 W 1023,6 14 0,0
23.10.2018 13:00:00 13,5 9,7 13,3 32 18 50 27 W 1024,0 14 0,0
23.10.2018 12:00:00 13,4 9,3 13,5 36 19 50 27 W 1024,6 14 0,0
23.10.2018 11:00:00 12,7 8,9 12,7 25 14 36 19 W 1024,8 14 0,0
23.10.2018 10:00:00 12,1 8,5 11,7 22 12 36 19 W 1025,7 15 0,0
23.10.2018 09:00:00 11,8 8,3 11,2 22 12 32 18 W 1026,1 16 0,0
23.10.2018 08:00:00 11,3 8,1 10,7 22 12 32 18 W 1026,3 17 0,0
23.10.2018 07:00:00 11,2 8,2 10,5 22 12 32 18 W 1026,4 18 0,0
23.10.2018 06:00:00 11,0 7,9 10,0 22 12 36 19 W 1027,3 20 0,0
23.10.2018 05:00:00 8,9 6,7 8,1 18 10 22 12 SW 1028,3 28 0,0
23.10.2018 04:00:00 7,8 6,0 6,9 14 8 25 14 SW 1029,8 28 0,0
23.10.2018 03:00:00 7,2 5,3 5,7 18 10 22 12 SW 1030,3 28 0,0
23.10.2018 02:00:00 5,3 4,2 2,0 14 8 18 10 SW 1032,0 21 0,0
23.10.2018 01:00:00 4,5 3,9 1,5 11 6 14 8 SW 1032,9 19 0,0
23.10.2018 00:00:00 3,9 2,7 0,9 11 6 14 8 WSW 1033,7 20 0,0
22.10.2018 23:00:00 4,9 4,1 0,5 7 4 11 6 SSW 1034,3 19 0,0
22.10.2018 22:00:00 4,5 4,1 0,6 4 2 7 4 WSW 1034,1 16 0,0
22.10.2018 21:00:00 4,5 3,3 2,1 4 2 7 4 SW 1034,3 24 0,0
22.10.2018 20:00:00 6,9 4,8 2,0 4 2 11 6 NNW 1034,6 18 0,0
22.10.2018 19:00:00 9,0 4,5 5,0 7 4 22 12 NNW 1034,3 29 0,0
22.10.2018 18:00:00 11,7 5,8 10,8 14 8 22 12 NNW 1034,2 32 0,0
22.10.2018 17:00:00 13,3 5,6 13,1 18 10 29 16 N 1034,1 28 0,0
22.10.2018 16:00:00 13,6 7,0 13,5 14 8 29 16 NNE 1033,3 23 0,0
22.10.2018 15:00:00 14,8 7,5 14,8 22 12 36 19 NNE 1033,4 22 0,0
22.10.2018 14:00:00 14,3 8,7 14,4 22 12 29 16 N 1033,3 20 0,0
22.10.2018 13:00:00 14,7 7,3 15,8 18 10 32 18 N 1033,4 26 0,0
22.10.2018 12:00:00 14,4 7,1 14,8 25 14 32 18 N 1033,2 28 0,0
22.10.2018 11:00:00 13,6 8,0 13,0 14 8 25 14 N 1032,8 26 0,0
22.10.2018 10:00:00 12,3 8,3 11,7 14 8 29 16 N 1032,1 32 0,0
22.10.2018 09:00:00 12,3 10,7 11,8 18 10 36 19 N 1031,1 22 0,0
22.10.2018 08:00:00 12,6 10,6 12,1 18 10 25 14 N 1030,0 25 0,0
22.10.2018 07:00:00 12,6 11,4 12,2 11 6 22 12 N 1029,1 24 0,0
22.10.2018 06:00:00 12,7 12,1 12,4 14 8 29 16 N 1028,5 24 0,1
22.10.2018 05:00:00 13,6 12,4 13,2 18 10 29 16 N 1027,9 20 0,0
22.10.2018 04:00:00 13,4 12,9 13,2 14 8 29 16 N 1027,5 7 0,1
22.10.2018 03:00:00 13,3 11,7 12,9 7 4 11 6 WNW 1027,0 6 0,0
22.10.2018 02:00:00 12,9 10,8 12,5 11 6 14 8 W 1026,9 7 0,0
22.10.2018 01:00:00 11,5 9,9 10,1 4 2 11 6 SW 1026,9 6 0,0
22.10.2018 00:00:00 11,6 10,0 9,4 7 4 11 6 S 1026,8 7 0,0
21.10.2018 23:00:00 11,9 10,0 11,0 7 4 7 4 SSW 1026,6 8 0,0
21.10.2018 22:00:00 12,4 10,2 11,0 7 4 7 4 S 1026,5 8 0,0
21.10.2018 21:00:00 10,4 9,1 7,1 4 2 7 4 SSW 1026,6 7 0,0
21.10.2018 20:00:00 12,2 9,1 10,4 7 4 11 6 S 1026,4 10 0,0
21.10.2018 19:00:00 14,2 9,8 13,7 7 4 11 6 S 1026,3 12 0,0
21.10.2018 18:00:00 14,9 9,9 14,8 7 4 14 8 S 1026,5 14 0,0
21.10.2018 17:00:00 15,5 9,8 15,6 11 6 22 12 SSW 1026,8 15 0,0
21.10.2018 16:00:00 15,8 9,1 16,5 14 8 22 12 SSW 1027,3 17 0,0
21.10.2018 15:00:00 15,7 8,6 17,4 14 8 18 10 SSW 1027,6 16 0,0
21.10.2018 14:00:00 15,6 8,2 17,2 14 8 22 12 S 1028,0 17 0,0
21.10.2018 13:00:00 14,5 8,9 15,3 14 8 22 12 SSW 1028,7 15 0,0
21.10.2018 12:00:00 13,2 8,3 14,1 14 8 18 10 S 1029,3 11 0,0
21.10.2018 11:00:00 12,2 9,0 12,5 7 4 14 8 S 1029,5 10 0,0
21.10.2018 10:00:00 11,0 8,7 11,2 11 6 14 8 S 1029,2 9 0,0
21.10.2018 09:00:00 9,0 8,3 6,3 7 4 11 6 S 1029,0 5 0,0
21.10.2018 08:00:00 9,1 7,9 8,8 7 4 11 6 S 1028,9 7 0,0
21.10.2018 07:00:00 9,4 8,2 9,1 7 4 11 6 S 1029,2 8 0,0
21.10.2018 06:00:00 9,4 8,3 9,0 7 4 11 6 SSE 1029,3 8 0,0
21.10.2018 05:00:00 9,9 8,8 9,2 7 4 11 6 S 1029,5 7 0,0
21.10.2018 04:00:00 9,4 8,8 9,0 4 2 7 4 SSW 1029,8 6 0,0
21.10.2018 03:00:00 9,4 9,2 9,1 7 4 7 4 SSE 1030,0 5 0,0
21.10.2018 02:00:00 8,2 8,1 4,9 4 2 7 4 SSE 1030,3 2,6 0,0
21.10.2018 01:00:00 6,6 6,6 3,3 4 2 7 4 SSW 1030,7 0,1 0,0
21.10.2018 00:00:00 6,7 6,5 3,3 7 4 7 4 S 1031,0 0,6 0,0
20.10.2018 23:00:00 7,4 7,4 4,0 4 2 7 4 S 1031,0 0,1 0,0
20.10.2018 22:00:00 9,4 8,8 6,1 4 2 7 4 S 1031,2 8 0,0
20.10.2018 21:00:00 10,1 8,9 8,2 4 2 7 4 SW 1031,4 10 0,0
20.10.2018 20:00:00 10,8 9,5 9,7 4 2 11 6 SSW 1031,0 13 0,0
20.10.2018 19:00:00 12,2 10,0 10,9 4 2 4 2 W 1030,8 20 0,0
20.10.2018 18:00:00 14,0 9,7 13,8 4 2 11 6 W 1030,9 28 0,0
20.10.2018 17:00:00 14,9 9,5 14,1 7 4 14 8 WNW 1030,9 27 0,0
20.10.2018 16:00:00 14,9 8,4 15,5 7 4 14 8 W 1031,3 35 0,0
20.10.2018 15:00:00 15,1 8,1 17,0 7 4 14 8 WSW 1031,3 25 0,0
20.10.2018 14:00:00 14,9 7,6 15,7 11 6 14 8 SW 1031,6 28 0,0
20.10.2018 13:00:00 14,7 7,7 15,7 7 4 11 6 WSW 1032,2 28 0,0
20.10.2018 12:00:00 13,1 8,8 14,0 7 4 11 6 SW 1031,8 20 0,0
20.10.2018 11:00:00 11,7 8,8 12,5 7 4 11 6 SW 1031,6 14 0,0
20.10.2018 10:00:00 8,1 7,9 8,7 4 2 4 2 SSW 1031,3 7 0,0
20.10.2018 09:00:00 5,0 4,9 3,5 4 2 4 2 S 1030,7 0,3 0,0
20.10.2018 08:00:00 3,8 3,8 1,0 4 2 4 2 NNW 1030,2 0,2 0,0
20.10.2018 07:00:00 3,3 3,2 0,8 0 0 4 2 N 1030,0 0,1 0,0
20.10.2018 06:00:00 3,7 3,6 1,0 0 0 7 4 N 1029,6 0,2 0,0
20.10.2018 05:00:00 3,4 3,4 0,8 4 2 4 2 NNW 1028,8 0,1 0,0
20.10.2018 04:00:00 2,9 2,8 -0,2 0 0 4 2 N 1028,6 0,2 0,0
20.10.2018 03:00:00 3,0 2,8 0,0 0 0 7 4 N 1028,7 0,1 0,0
20.10.2018 02:00:00 3,7 3,5 -0,1 0 0 7 4 N 1028,6 0,1 0,0
20.10.2018 01:00:00 4,2 4,0 0,6 0 0 7 4 N 1027,8 0,1 0,0
20.10.2018 00:00:00 5,7 5,6 1,6 4 2 7 4 N 1027,8 0,2 0,0
19.10.2018 23:00:00 6,9 6,5 3,6 4 2 11 6 N 1027,6 3,2 0,0
19.10.2018 22:00:00 9,3 7,5 7,9 7 4 11 6 N 1027,7 17 0,0
19.10.2018 21:00:00 7,7 6,7 4,1 4 2 11 6 NNE 1026,8 11 0,0
19.10.2018 20:00:00 9,3 7,0 7,2 7 4 14 8 N 1026,4 20 0,0
19.10.2018 19:00:00 11,2 7,9 9,9 11 6 18 10 NNE 1025,8 24 0,0
19.10.2018 18:00:00 12,5 8,1 11,7 14 8 18 10 NNW 1025,1 29 0,0
19.10.2018 17:00:00 14,8 8,2 14,9 11 6 18 10 NNW 1025,0 28 0,0
19.10.2018 16:00:00 15,4 7,9 16,1 7 4 18 10 NNE 1024,8 29 0,0
19.10.2018 15:00:00 15,6 8,2 16,7 4 2 14 8 NE 1025,3 30 0,0
19.10.2018 14:00:00 14,6 8,5 16,2 11 6 18 10 E 1025,3 20 0,0
19.10.2018 13:00:00 14,2 9,4 15,3 7 4 14 8 ENE 1025,8 17 0,0
19.10.2018 12:00:00 12,3 8,2 13,8 11 6 14 8 ENE 1025,9 21 0,0
19.10.2018 11:00:00 10,7 8,0 11,5 7 4 14 8 ENE 1026,0 22 0,0
19.10.2018 10:00:00 9,2 7,2 9,6 7 4 14 8 ENE 1026,0 20 0,0
19.10.2018 09:00:00 7,0 5,9 5,9 7 4 14 8 NE 1025,8 22 0,0
19.10.2018 08:00:00 6,5 5,3 5,3 11 6 14 8 NNE 1025,7 24 0,0
19.10.2018 07:00:00 6,7 5,5 5,6 7 4 11 6 NNE 1025,7 28 0,0
19.10.2018 06:00:00 7,4 5,8 6,1 7 4 14 8 NE 1025,5 30 0,0
19.10.2018 05:00:00 7,5 5,6 6,0 7 4 14 8 NNE 1025,7 32 0,0
19.10.2018 04:00:00 7,6 5,6 6,1 7 4 18 10 NNE 1025,7 31 0,0
19.10.2018 03:00:00 8,4 6,0 7,0 11 6 18 10 NE 1025,8 34 0,0
19.10.2018 02:00:00 8,8 6,3 7,2 11 6 18 10 ENE 1025,9 38 0,0
19.10.2018 01:00:00 9,1 6,7 7,9 11 6 18 10 ENE 1026,1 43 0,0
19.10.2018 00:00:00 9,7 6,9 8,3 11 6 14 8 NE 1026,2 37 0,0
18.10.2018 23:00:00 9,6 7,2 6,8 7 4 11 6 ENE 1026,2 35 0,0
18.10.2018 22:00:00 10,1 7,7 8,2 7 4 14 8 NE 1026,2 32 0,0
18.10.2018 21:00:00 10,5 8,4 9,4 11 6 14 8 N 1025,9 25 0,0
18.10.2018 20:00:00 10,6 8,2 8,0 7 4 14 8 NNE 1025,5 33 0,0
18.10.2018 19:00:00 11,2 8,2 9,7 11 6 14 8 N 1025,3 40 0,0
18.10.2018 18:00:00 13,5 8,9 12,9 11 6 18 10 N 1024,9 37 0,0
18.10.2018 17:00:00 15,0 8,5 15,1 14 8 25 14 N 1025,1 32 0,0
18.10.2018 16:00:00 15,3 8,9 14,5 18 10 29 16 N 1025,2 37 0,0
18.10.2018 15:00:00 15,2 9,0 15,7 18 10 32 18 NNE 1025,3 35 0,0
18.10.2018 14:00:00 15,2 9,3 15,7 18 10 32 18 NNE 1025,3 34 0,0
18.10.2018 13:00:00 14,8 9,1 15,2 22 12 29 16 NNE 1025,5 35 0,0
18.10.2018 12:00:00 15,5 11,3 14,9 18 10 25 14 NNE 1025,6 26 0,0
18.10.2018 11:00:00 14,6 11,9 15,6 11 6 18 10 N 1025,2 19 0,0
18.10.2018 10:00:00 13,3 12,0 12,9 7 4 14 8 N 1024,9 15 0,0
18.10.2018 09:00:00 11,9 11,1 10,9 7 4 14 8 N 1024,5 14 0,0
18.10.2018 08:00:00 13,0 11,7 12,4 7 4 14 8 N 1023,9 16 0,0
18.10.2018 07:00:00 13,1 12,0 12,4 11 6 14 8 N 1023,5 15 0,0

tt = Température de l'air
td = dewpoint
tt 5cm = Température de l'air 5cm
ff = Vitesse du vent
fx = gusts
dd = Direction du vent
ppp = reduced air pressure
vv = visibility
rr = Quantités de précipitations

stations d'obs. à proximité